| time (UTC) | temp F | wind direction | speed knots | gust knots | rain 1hr in | rain 24hr in | rain mn in | humidity % | barometer mb |
| 20260904123542 | 69 | 96 | 0.0 | 0.9 | 0.00 | 0.24 | 0.00 | 93 | 1012.0 |
| 20260904122601 | 69 | 100 | 0.0 | 2.6 | 0.00 | 0.24 | 0.00 | 93 | 1011.9 |
| 20260904121517 | 69 | 96 | 0.9 | 2.6 | 0.00 | 0.24 | 0.00 | 93 | 1012.2 |
| 20260904120533 | 69 | 0.0 | 0.0 | 0.00 | 0.24 | 0.00 | 93 | 1012.3 | |
| 20260904115530 | 69 | 0.0 | 0.0 | 0.00 | 0.24 | 0.00 | 92 | 1011.9 | |
| 20260904114527 | 69 | 95 | 0.0 | 0.9 | 0.00 | 0.24 | 0.00 | 92 | 1011.6 |
| 20260904113525 | 68 | 95 | 0.0 | 0.9 | 0.00 | 0.24 | 0.00 | 92 | 1011.8 |
| 20260904112521 | 68 | 95 | 0.0 | 1.7 | 0.00 | 0.24 | 0.00 | 92 | 1011.4 |
| 20260904111518 | 68 | 96 | 0.9 | 1.7 | 0.00 | 0.24 | 0.00 | 92 | 1011.4 |
| 20260904110534 | 68 | 97 | 0.9 | 1.7 | 0.00 | 0.24 | 0.00 | 92 | 1011.6 |
| 20260904105532 | 68 | 98 | 1.7 | 3.5 | 0.00 | 0.24 | 0.00 | 92 | 1011.4 |
| 20260904104529 | 68 | 144 | 1.7 | 5.2 | 0.00 | 0.24 | 0.00 | 92 | 1011.1 |
| 20260904103526 | 68 | 143 | 2.6 | 5.2 | 0.00 | 0.24 | 0.00 | 92 | 1011.1 |
| 20260904102522 | 68 | 164 | 0.9 | 0.9 | 0.00 | 0.24 | 0.00 | 92 | 1010.9 |
| 20260904101519 | 68 | 165 | 0.0 | 0.9 | 0.00 | 0.24 | 0.00 | 92 | 1010.8 |
| 20260904100516 | 68 | 175 | 0.0 | 0.9 | 0.00 | 0.24 | 0.00 | 92 | 1010.7 |
| 20260904095533 | 68 | 158 | 0.0 | 0.9 | 0.00 | 0.24 | 0.00 | 92 | 1010.2 |
| 20260904094532 | 68 | 0.0 | 0.0 | 0.00 | 0.24 | 0.00 | 92 | 1010.7 | |
| 20260904093527 | 68 | 0.0 | 0.0 | 0.00 | 0.24 | 0.00 | 92 | 1011.1 | |
| 20260904092524 | 68 | 0.0 | 0.0 | 0.00 | 0.24 | 0.00 | 92 | 1011.3 | |
| 20260904091521 | 68 | 0.0 | 0.0 | 0.00 | 0.24 | 0.00 | 92 | 1011.5 | |
| 20260904090518 | 68 | 0.0 | 0.0 | 0.00 | 0.24 | 0.00 | 92 | 1011.4 | |
| 20260904085535 | 68 | 0.0 | 0.0 | 0.00 | 0.24 | 0.00 | 92 | 1011.3 | |
| 20260904084532 | 68 | 157 | 0.0 | 1.7 | 0.00 | 0.24 | 0.00 | 92 | 1011.2 |
| 20260904083549 | 68 | 157 | 0.0 | 1.7 | 0.00 | 0.24 | 0.00 | 92 | 1011.3 |
| 20260904082526 | 68 | 171 | 0.9 | 1.7 | 0.00 | 0.24 | 0.00 | 92 | 1011.6 |
| 20260904081523 | 68 | 189 | 0.0 | 0.9 | 0.00 | 0.24 | 0.00 | 92 | 1011.5 |
| 20260904080520 | 68 | 169 | 0.9 | 3.5 | 0.00 | 0.24 | 0.00 | 92 | 1011.3 |
| 20260904075537 | 68 | 171 | 0.9 | 3.5 | 0.00 | 0.24 | 0.00 | 92 | 1011.2 |
| 20260904074534 | 68 | 197 | 0.9 | 3.5 | 0.00 | 0.24 | 0.00 | 92 | 1011.1 |
| 20260904073531 | 68 | 186 | 0.9 | 3.5 | 0.00 | 0.24 | 0.00 | 92 | 1010.9 |
| 20260904072528 | 67 | 193 | 0.9 | 2.6 | 0.00 | 0.25 | 0.00 | 92 | 1011.2 |
| 20260904071525 | 68 | 182 | 0.9 | 3.5 | 0.00 | 0.26 | 0.00 | 92 | 1011.3 |
| 20260904070521 | 67 | 178 | 1.7 | 3.5 | 0.00 | 0.26 | 0.00 | 92 | 1011.6 |
| 20260904065518 | 68 | 202 | 1.7 | 5.2 | 0.00 | 0.26 | 0.00 | 91 | 1011.7 |
| 20260904064515 | 68 | 199 | 1.7 | 6.1 | 0.00 | 0.27 | 0.00 | 92 | 1011.9 |
| 20260904063532 | 68 | 193 | 0.9 | 3.5 | 0.00 | 0.28 | 0.00 | 91 | 1011.8 |
| 20260904062529 | 68 | 0.0 | 0.0 | 0.00 | 0.28 | 0.00 | 91 | 1011.8 | |
| 20260904061526 | 68 | 202 | 0.0 | 1.7 | 0.00 | 0.28 | 0.00 | 91 | 1011.6 |
| 20260904060543 | 68 | 0.0 | 0.0 | 0.00 | 0.28 | 0.00 | 91 | 1011.6 | |
| 20260904055520 | 68 | 0.0 | 0.0 | 0.00 | 0.28 | 0.00 | 91 | 1011.7 | |
| 20260904054517 | 68 | 0.0 | 0.0 | 0.00 | 0.28 | 0.00 | 91 | 1011.9 | |
| 20260904053534 | 68 | 201 | 0.0 | 0.9 | 0.00 | 0.28 | 0.00 | 91 | 1012.0 |
| 20260904052551 | 68 | 0.0 | 0.0 | 0.00 | 0.28 | 0.00 | 91 | 1012.0 | |
| 20260904051528 | 68 | 0.0 | 0.0 | 0.00 | 0.32 | 0.00 | 91 | 1012.0 | |
| 20260904050544 | 68 | 0.0 | 0.0 | 0.00 | 0.33 | 0.00 | 91 | 1012.1 | |
| 20260904045521 | 68 | 0.0 | 0.0 | 0.00 | 0.33 | 0.00 | 91 | 1012.2 | |
| 20260904044538 | 68 | 0.0 | 0.0 | 0.00 | 0.33 | 0.00 | 91 | 1012.1 | |
| 20260904043515 | 68 | 0.0 | 0.0 | 0.00 | 0.33 | 0.00 | 91 | 1011.8 | |
| 20260904042532 | 69 | 0.0 | 0.0 | 0.00 | 0.33 | 0.00 | 91 | 1011.9 | |
| 20260904041549 | 69 | 254 | 0.0 | 0.9 | 0.00 | 0.33 | 0.00 | 91 | 1011.9 |
| 20260904040526 | 69 | 254 | 0.0 | 1.7 | 0.00 | 0.33 | 0.00 | 91 | 1011.8 |
| 20260904035525 | 69 | 0.0 | 0.0 | 0.00 | 0.33 | 0.34 | 91 | 1011.5 | |
| 20260904034520 | 69 | 0.0 | 0.0 | 0.00 | 0.33 | 0.34 | 91 | 1011.3 | |
| 20260904033517 | 69 | 0.0 | 0.0 | 0.00 | 0.37 | 0.34 | 91 | 1011.3 | |
| 20260904032535 | 69 | 0.0 | 0.0 | 0.00 | 0.41 | 0.34 | 91 | 1011.2 | |
| 20260904031530 | 69 | 254 | 0.0 | 1.7 | 0.00 | 0.50 | 0.34 | 91 | 1011.4 |
| 20260904030527 | 69 | 0.0 | 0.0 | 0.00 | 0.50 | 0.34 | 91 | 1011.1 | |
| 20260904025524 | 69 | 0.0 | 0.0 | 0.00 | 0.50 | 0.34 | 91 | 1011.2 | |
| 20260904024523 | 70 | 0.0 | 0.0 | 0.00 | 0.50 | 0.34 | 91 | 1011.1 | |
| 20260904023518 | 70 | 0.0 | 0.0 | 0.00 | 0.50 | 0.34 | 90 | 1011.2 | |
| 20260904022535 | 70 | 0.0 | 0.0 | 0.00 | 0.50 | 0.34 | 90 | 1011.2 | |
| 20260904021552 | 70 | 254 | 0.0 | 1.7 | 0.00 | 0.50 | 0.34 | 91 | 1011.1 |
| 20260904020529 | 70 | 0.0 | 0.0 | 0.00 | 0.50 | 0.34 | 91 | 1011.1 | |
| 20260904015526 | 70 | 254 | 0.0 | 0.9 | 0.00 | 0.50 | 0.34 | 91 | 1011.3 |
| 20260904014523 | 70 | 254 | 0.9 | 2.6 | 0.00 | 0.50 | 0.34 | 91 | 1011.2 |
| 20260904013539 | 70 | 251 | 0.0 | 0.9 | 0.00 | 0.50 | 0.34 | 90 | 1011.0 |
| 20260904012536 | 70 | 251 | 0.0 | 0.9 | 0.00 | 0.50 | 0.34 | 90 | 1010.9 |
| 20260904011533 | 70 | 0.0 | 0.0 | 0.00 | 0.50 | 0.34 | 90 | 1011.0 | |
| 20260904010530 | 70 | 248 | 0.0 | 1.7 | 0.00 | 0.50 | 0.34 | 90 | 1010.8 |
| 20260904005527 | 70 | 243 | 0.9 | 1.7 | 0.00 | 0.50 | 0.34 | 90 | 1010.6 |
| 20260904004524 | 70 | 245 | 0.9 | 1.7 | 0.00 | 0.50 | 0.34 | 90 | 1010.6 |
| 20260904003541 | 70 | 256 | 0.9 | 1.7 | 0.00 | 0.50 | 0.34 | 90 | 1010.7 |
| 20260904002517 | 71 | 254 | 0.9 | 2.6 | 0.00 | 0.50 | 0.34 | 90 | 1010.3 |
| 20260904001535 | 71 | 315 | 1.7 | 2.6 | 0.00 | 0.50 | 0.34 | 90 | 1010.0 |
| 20260904000532 | 71 | 341 | 1.7 | 3.5 | 0.00 | 0.50 | 0.34 | 90 | 1010.0 |
| 20260903235528 | 71 | 113 | 3.5 | 7.0 | 0.00 | 0.50 | 0.34 | 90 | 1009.3 |
| 20260903234525 | 71 | 133 | 4.3 | 8.7 | 0.00 | 0.50 | 0.34 | 90 | 1009.6 |
| 20260903233522 | 71 | 73 | 1.7 | 5.2 | 0.00 | 0.50 | 0.34 | 90 | 1009.5 |
| 20260903232519 | 71 | 25 | 1.7 | 2.6 | 0.00 | 0.50 | 0.34 | 89 | 1009.8 |
| 20260903231517 | 71 | 48 | 2.6 | 5.2 | 0.00 | 0.50 | 0.34 | 89 | 1009.7 |
| 20260903230532 | 71 | 55 | 1.7 | 5.2 | 0.00 | 0.50 | 0.34 | 89 | 1009.3 |
| 20260903225529 | 71 | 59 | 1.7 | 2.6 | 0.00 | 0.50 | 0.34 | 89 | 1010.0 |
| 20260903224526 | 71 | 57 | 1.7 | 2.6 | 0.00 | 0.50 | 0.34 | 89 | 1010.2 |
| 20260903223543 | 71 | 353 | 0.9 | 2.6 | 0.00 | 0.50 | 0.34 | 89 | 1010.5 |
| 20260903222519 | 71 | 39 | 0.9 | 2.6 | 0.00 | 0.50 | 0.34 | 89 | 1010.6 |
| 20260903221516 | 71 | 353 | 0.0 | 0.9 | 0.00 | 0.50 | 0.34 | 89 | 1010.8 |
| 20260903220555 | 70 | 354 | 0.9 | 1.7 | 0.00 | 0.50 | 0.34 | 89 | 1011.1 |
| 20260903215550 | 70 | 297 | 1.7 | 3.5 | 0.00 | 0.50 | 0.34 | 88 | 1011.4 |
| 20260903214527 | 70 | 341 | 1.7 | 5.2 | 0.02 | 0.50 | 0.34 | 88 | 1011.1 |
| 20260903213524 | 70 | 355 | 0.9 | 1.7 | 0.04 | 0.50 | 0.34 | 88 | 1010.7 |
| 20260903212542 | 70 | 345 | 0.9 | 1.7 | 0.05 | 0.50 | 0.34 | 88 | 1011.0 |
| 20260903211537 | 70 | 0 | 0.0 | 1.7 | 0.13 | 0.50 | 0.34 | 88 | 1010.9 |
| 20260903210536 | 70 | 347 | 0.9 | 2.6 | 0.13 | 0.50 | 0.34 | 87 | 1011.2 |
| 20260903205531 | 70 | 312 | 2.6 | 7.0 | 0.13 | 0.49 | 0.33 | 87 | 1011.0 |
| 20260903204526 | 70 | 10 | 2.6 | 6.1 | 0.11 | 0.47 | 0.31 | 86 | 1010.3 |
| 20260903201530 | 73 | 323 | 4.3 | 11.3 | 0.00 | 0.37 | 0.20 | 83 | 1010.7 |
| 20260903200525 | 73 | 2 | 2.6 | 6.1 | 0.00 | 0.37 | 0.20 | 83 | 1011.0 |
| 20260903195524 | 73 | 30 | 0.9 | 3.5 | 0.00 | 0.37 | 0.20 | 83 | 1009.1 |
| 20260903194523 | 74 | 4 | 1.7 | 2.6 | 0.00 | 0.37 | 0.20 | 83 | 1009.8 |
| 20260903193518 | 74 | 47 | 0.0 | 0.9 | 0.00 | 0.37 | 0.20 | 83 | 1009.3 |
| 20260903192535 | 74 | 48 | 0.9 | 2.6 | 0.00 | 0.37 | 0.20 | 83 | 1009.3 |
| 20260903191612 | 74 | 48 | 0.9 | 1.7 | 0.00 | 0.37 | 0.20 | 82 | 1009.7 |
| 20260903190528 | 74 | 46 | 0.9 | 1.7 | 0.00 | 0.37 | 0.20 | 82 | 1009.8 |
| 20260903185526 | 74 | 47 | 1.7 | 2.6 | 0.00 | 0.37 | 0.20 | 82 | 1009.8 |
| 20260903185018 | 74 | 33 | 0.9 | 2.6 | 0.00 | 0.37 | 0.20 | 82 | 1009.9 |
| 20260903184034 | 75 | 30 | 0.9 | 1.7 | 0.00 | 0.37 | 0.20 | 82 | 1010.1 |
| 20260903183030 | 75 | 47 | 1.7 | 2.6 | 0.00 | 0.37 | 0.20 | 83 | 1010.1 |
| 20260903182029 | 75 | 46 | 1.7 | 3.5 | 0.00 | 0.37 | 0.20 | 84 | 1009.8 |
| 20260903181044 | 74 | 41 | 0.9 | 2.6 | 0.01 | 0.37 | 0.20 | 84 | 1009.5 |
| 20260903180041 | 73 | 32 | 0.9 | 5.2 | 0.02 | 0.37 | 0.20 | 85 | 1009.6 |
| 20260903175018 | 73 | 19 | 1.7 | 5.2 | 0.02 | 0.37 | 0.20 | 85 | 1009.8 |
| 20260903174035 | 72 | 17 | 0.9 | 3.5 | 0.02 | 0.37 | 0.20 | 85 | 1009.5 |
| 20260903173032 | 72 | 6 | 1.7 | 3.5 | 0.03 | 0.37 | 0.20 | 85 | 1009.5 |
| 20260903172029 | 71 | 114 | 3.5 | 7.8 | 0.04 | 0.37 | 0.20 | 84 | 1009.2 |
| 20260903171025 | 71 | 93 | 0.9 | 2.6 | 0.06 | 0.35 | 0.19 | 84 | 1010.1 |
| 20260903170022 | 71 | 120 | 1.7 | 2.6 | 0.09 | 0.35 | 0.18 | 83 | 1010.5 |
| 20260903165019 | 71 | 179 | 2.6 | 8.7 | 0.09 | 0.35 | 0.18 | 83 | 1010.3 |
| 20260903164016 | 71 | 355 | 0.9 | 1.7 | 0.09 | 0.35 | 0.18 | 83 | 1010.6 |
| 20260903163033 | 71 | 349 | 0.0 | 2.6 | 0.08 | 0.33 | 0.17 | 82 | 1010.8 |
| 20260903162030 | 71 | 324 | 3.5 | 7.0 | 0.08 | 0.33 | 0.16 | 81 | 1011.0 |
| 20260903161028 | 74 | 298 | 7.0 | 18.2 | 0.05 | 0.30 | 0.13 | 80 | 1012.2 |
| 20260903160044 | 76 | 284 | 9.6 | 28.7 | 0.01 | 0.26 | 0.09 | 82 | 1012.8 |
| 20260903155020 | 76 | 118 | 0.0 | 0.9 | 0.00 | 0.25 | 0.08 | 81 | 1011.4 |
| 20260903154037 | 76 | 117 | 0.0 | 0.9 | 0.00 | 0.25 | 0.08 | 80 | 1011.2 |
| 20260903153034 | 77 | 116 | 0.0 | 0.9 | 0.00 | 0.25 | 0.08 | 80 | 1011.0 |
| 20260903152031 | 77 | 116 | 0.0 | 0.9 | 0.00 | 0.25 | 0.08 | 79 | 1010.8 |
| 20260903151028 | 78 | 113 | 2.6 | 3.5 | 0.00 | 0.25 | 0.08 | 79 | 1010.4 |
| 20260903150024 | 79 | 114 | 2.6 | 6.1 | 0.00 | 0.25 | 0.08 | 79 | 1010.1 |
| 20260903145021 | 80 | 115 | 2.6 | 3.5 | 0.00 | 0.25 | 0.08 | 80 | 1010.2 |
| 20260903144040 | 79 | 116 | 2.6 | 3.5 | 0.00 | 0.25 | 0.08 | 80 | 1010.4 |
| 20260903143035 | 79 | 115 | 2.6 | 5.2 | 0.00 | 0.25 | 0.08 | 81 | 1010.4 |
| 20260903142032 | 79 | 115 | 2.6 | 5.2 | 0.00 | 0.25 | 0.08 | 81 | 1010.2 |
| 20260903141029 | 78 | 114 | 1.7 | 2.6 | 0.00 | 0.25 | 0.08 | 82 | 1010.0 |
| 20260903140026 | 77 | 112 | 0.9 | 3.5 | 0.00 | 0.25 | 0.08 | 82 | 1010.3 |
| 20260903135023 | 77 | 112 | 0.9 | 2.6 | 0.00 | 0.25 | 0.08 | 83 | 1010.4 |
| 20260903134019 | 77 | 113 | 1.7 | 2.6 | 0.00 | 0.25 | 0.08 | 84 | 1010.4 |
| 20260903133016 | 76 | 201 | 1.7 | 2.6 | 0.00 | 0.25 | 0.08 | 84 | 1010.4 |
| 20260903132033 | 76 | 260 | 0.0 | 1.7 | 0.00 | 0.25 | 0.08 | 85 | 1010.5 |
| 20260903131030 | 75 | 258 | 0.0 | 0.9 | 0.00 | 0.25 | 0.08 | 85 | 1010.5 |
| 20260903130048 | 74 | 258 | 0.0 | 0.9 | 0.00 | 0.25 | 0.08 | 85 | 1010.6 |
| 20260903125023 | 74 | 258 | 0.9 | 0.9 | 0.00 | 0.25 | 0.08 | 85 | 1010.8 |